Meteo Giornale » Osservazioni meteo Italia » Pisa-S Giusto

ore: 23:45 - Osservazioni Meteo Pisa-S Giusto
Lat. 43° 41' N Lon. 10° 23' E Alt. 2 metri s.l.m.

nuvoloso Europe/Rome

15 °C

Nuvoloso

Temp. 24 Ore

12 °C

17 °C

Sud/Sud-Est

11.1 Km/h

Dew point 14 °C

Umidità 93 %

Visibilità  10 Km

Il sole sorge alle ore 06:20

Il sole tramonta alle ore 20:12

Data e Ora Cielo e Fenomeni T °C DP °C Um. % Pres. hPa Vis. km Vento km/h
Ieri h: 23:45 nuvoloso Nuvoloso 15 14 93 1009 10 S/SE 11.1
Ieri h: 23:15 nuvoloso Nuvoloso 15 14 93 1008 10 S/SE 14.8
Ieri h: 22:45 nuvoloso Nuvoloso 15 13 87 1008 10 S/SE 14.8
Ieri h: 22:15 nuvoloso Nuvoloso 15 13 87 1008 10 S/SE 16.7
Ieri h: 21:45 nuvoloso Nuvoloso 15 13 87 1007 10 S/SE 20.3
Ieri h: 21:15 nuvoloso Nuvoloso 14 13 93 1007 10 S/SE 18.5
Ieri h: 20:45 molto_nuvoloso Molto Nuvoloso 14 13 93 1006 10 S/SE 20.3
Ieri h: 20:15 molto_nuvoloso Molto Nuvoloso 14 12 87 1005 10 S/SE 16.7
Ieri h: 19:45 coperto_pioggia Pioggia Debole 15 12 82 1005 10 S/SE 25.9
Ieri h: 19:15 molto_nuvoloso Molto Nuvoloso 15 13 87 1005 10 S/SE 18.5
Ieri h: 18:45 molto_nuvoloso Molto Nuvoloso 15 13 87 1004 10 S/SE 22.2
Ieri h: 18:15 molto_nuvoloso Molto Nuvoloso 15 13 87 1004 10 S/SE 24
Ieri h: 17:45 molto_nuvoloso Molto Nuvoloso 16 13 82 1004 10 S/SE 27.8
Ieri h: 17:15 molto_nuvoloso Molto Nuvoloso 16 13 82 1004 10 SE 18.5
Ieri h: 16:45 molto_nuvoloso Molto Nuvoloso 16 12 77 1004 10 S/SE 27.8
Ieri h: 16:15 molto_nuvoloso Molto Nuvoloso 16 12 77 1003 10 S/SE 22.2
Ieri h: 15:45 molto_nuvoloso Molto Nuvoloso 16 13 82 1003 10 E/SE 13
Ieri h: 15:15 molto_nuvoloso Molto Nuvoloso 16 14 87 1003 10 E/SE 13
Ieri h: 14:45 molto_nuvoloso Molto Nuvoloso 16 14 87 1003 10 E 14.8
Ieri h: 14:15 molto_nuvoloso Molto Nuvoloso 17 14 82 1003 10 E/SE 16.7
Ieri h: 13:45 molto_nuvoloso Molto Nuvoloso 16 14 87 1003 10 E/SE 16.7
Ieri h: 13:15 molto_nuvoloso Molto Nuvoloso 15 14 93 1003 10 E 18.5
Ieri h: 12:45 coperto_pioggia Pioggia Debole 14 14 100 1002 7 E 22.2
Ieri h: 12:15 coperto_pioggia Pioggia Debole 14 13 93 1002 3 E 18.5
Ieri h: 11:45 coperto_pioggia Pioggia Foschia 14 13 93 1002 3 E 18.5
Ieri h: 11:15 coperto_pioggia Pioggia Debole 14 13 93 1002 6 E 22.2
Ieri h: 10:45 coperto_pioggia Pioggia Debole 14 13 93 1002 8 E 16.7
Ieri h: 10:15 coperto_pioggia Pioggia Debole 13 13 100 1002 10 E 16.7
Ieri h: 09:45 coperto_pioggia Pioggia Debole 13 13 100 1001 8 E 18.5
Ieri h: 09:15 coperto_pioggia Pioggia Debole 14 13 93 1001 10 E/SE 16.7
Ieri h: 08:45 coperto_pioggia Pioggia Debole 14 13 93 1001 10 E 20.3
Ieri h: 08:15 coperto_pioggia Pioggia Debole 14 12 87 1001 10 E 18.5
Ieri h: 07:45 molto_nuvoloso Molto Nuvoloso 14 12 87 1001 10 E 16.7
Ieri h: 07:15 molto_nuvoloso Molto Nuvoloso 14 12 87 1001 10 E 20.3
Ieri h: 06:45 molto_nuvoloso Molto Nuvoloso 14 12 87 1001 10 E 16.7
Ieri h: 06:15 molto_nuvoloso Molto Nuvoloso 14 12 87 1001 10 E 20.3
Ieri h: 05:45 coperto_pioggia Pioggia Debole 13 12 93 1001 10 E 20.3
Ieri h: 05:15 coperto_pioggia Pioggia Debole 13 12 93 1002 10 E 18.5
Ieri h: 04:45 coperto_pioggia Pioggia Debole 12 12 100 1003 10 E 16.7
Ieri h: 04:15 coperto_pioggia Pioggia Debole 13 13 100 1003 7 E 14.8
Ieri h: 03:45 coperto_pioggia Pioggia 13 12 93 1003 6 E 18.5
Ieri h: 03:15 coperto_pioggia Pioggia Debole 13 12 93 1004 10 E/SE 7.4
Ieri h: 02:45 coperto_pioggia Pioggia Debole 13 13 100 1004 10 E 13
Ieri h: 02:15 coperto_pioggia Pioggia Debole 13 13 100 1004 10 N 5.5
Ieri h: 01:45 coperto_pioggia Pioggia Debole 13 13 100 1004 10 E 7.4
Ieri h: 01:15 coperto_pioggia Pioggia Debole 13 13 100 1004 7 E/NE 13
Ieri h: 00:45 coperto_pioggia Pioggia Debole 13 12 93 1005 8 E/NE 9.3